Location: *
(24.1434°N, 56.8729°E)
Time: 16:16:15
(UTC+00:00)

Cosmos 407 Rocket - Pass Details

Date: 09 April 2020
Orbit: 743 x 787 km, 74.0° (Epoch: 05 June)

Event Time Altitude Azimuth Distance (km) Brightness Sun altitude
Rises 15:36:05 0° 205° (SSW) 3,200 6.8 -15.1°
Reaches altitude 10° 15:38:31 10° 210° (SSW) 2,271 6.1 -15.6°
Maximum altitude 15:43:31 52° 286° (WNW) 929 4.3 -16.7°
Drops below altitude 10° 15:48:29 10° 3° (N) 2,259 6.1 -17.8°
Sets 15:50:54 0° 8° (N) 3,182 6.8 -18.3°
